TimeEST,TemperatureF,Dew PointF,Humidity,Sea Level PressureIn,VisibilityMPH,Wind Direction,Wind SpeedMPH,Gust SpeedMPH,PrecipitationIn,Events,Conditions,WindDirDegrees,DateUTC
12:53 AM,75.9,70.0,82,30.08,10.0,Variable,3.5,-,N/A,,Partly Cloudy,0,2014-02-08 05:53:00
1:53 AM,75.9,70.0,82,30.08,10.0,East,4.6,-,N/A,,Clear,100,2014-02-08 06:53:00
2:28 AM,75.9,71.1,85,30.07,10.0,East,4.6,-,N/A,,Mostly Cloudy,100,2014-02-08 07:28:00
2:39 AM,75.9,70.0,82,30.07,10.0,Calm,Calm,-,N/A,,Mostly Cloudy,0,2014-02-08 07:39:00
2:53 AM,75.9,71.1,85,30.06,10.0,Calm,Calm,-,N/A,,Scattered Clouds,0,2014-02-08 07:53:00
3:53 AM,73.9,70.0,87,30.05,10.0,Calm,Calm,-,N/A,,Scattered Clouds,0,2014-02-08 08:53:00
4:53 AM,75.0,71.1,87,30.05,10.0,Calm,Calm,-,N/A,,Partly Cloudy,0,2014-02-08 09:53:00
5:07 AM,75.9,71.1,85,30.05,10.0,East,3.5,-,N/A,,Mostly Cloudy,100,2014-02-08 10:07:00
5:39 AM,75.9,71.1,85,30.06,10.0,SE,6.9,-,N/A,,Scattered Clouds,130,2014-02-08 10:39:00
5:53 AM,75.9,71.1,85,30.06,10.0,SE,4.6,-,N/A,,Clear,130,2014-02-08 10:53:00
6:53 AM,75.9,70.0,82,30.07,10.0,Variable,5.8,-,N/A,,Clear,0,2014-02-08 11:53:00
7:53 AM,77.0,71.1,82,30.08,10.0,SE,5.8,-,N/A,,Clear,130,2014-02-08 12:53:00
8:53 AM,79.0,72.0,79,30.08,10.0,SE,5.8,-,N/A,,Clear,130,2014-02-08 13:53:00
9:53 AM,81.0,72.0,74,30.10,10.0,SSE,6.9,-,N/A,,Clear,160,2014-02-08 14:53:00
10:53 AM,82.9,72.0,69,30.09,10.0,SSE,4.6,-,N/A,,Clear,160,2014-02-08 15:53:00
11:53 AM,82.9,72.0,69,30.07,10.0,SSE,5.8,-,N/A,,Clear,160,2014-02-08 16:53:00
12:53 PM,82.9,71.1,67,30.05,10.0,SSE,5.8,-,N/A,,Partly Cloudy,160,2014-02-08 17:53:00
1:53 PM,84.0,72.0,67,30.03,10.0,Variable,4.6,-,N/A,,Clear,0,2014-02-08 18:53:00
2:53 PM,82.0,72.0,71,30.01,10.0,Variable,4.6,-,N/A,,Clear,0,2014-02-08 19:53:00
3:53 PM,82.0,71.1,69,30.01,10.0,SSW,3.5,-,N/A,,Clear,200,2014-02-08 20:53:00
4:53 PM,80.1,71.1,74,30.02,10.0,South,3.5,-,N/A,,Overcast,170,2014-02-08 21:53:00
5:53 PM,79.0,71.1,77,30.03,10.0,Calm,Calm,-,N/A,,Clear,0,2014-02-08 22:53:00
6:53 PM,77.0,71.1,82,30.03,10.0,Calm,Calm,-,N/A,,Clear,0,2014-02-08 23:53:00
7:53 PM,77.0,71.1,82,30.05,10.0,Calm,Calm,-,N/A,,Partly Cloudy,0,2014-02-09 00:53:00
8:18 PM,77.0,71.1,82,30.05,10.0,Calm,Calm,-,N/A,,Mostly Cloudy,0,2014-02-09 01:18:00
8:28 PM,77.0,71.1,82,30.06,10.0,NW,3.5,-,N/A,,Scattered Clouds,320,2014-02-09 01:28:00
8:53 PM,78.1,73.9,87,30.07,10.0,North,8.1,-,N/A,,Partly Cloudy,350,2014-02-09 01:53:00
9:08 PM,75.9,73.0,91,30.07,10.0,North,6.9,-,N/A,,Mostly Cloudy,350,2014-02-09 02:08:00
9:23 PM,77.0,73.0,88,30.07,10.0,North,6.9,-,N/A,,Scattered Clouds,350,2014-02-09 02:23:00
9:53 PM,75.9,73.0,91,30.07,10.0,NNW,8.1,-,N/A,,Scattered Clouds,340,2014-02-09 02:53:00
10:10 PM,75.0,73.0,94,30.07,10.0,NNW,9.2,-,N/A,,Mostly Cloudy,340,2014-02-09 03:10:00
10:53 PM,75.0,72.0,90,30.07,10.0,North,8.1,-,N/A,,Overcast,350,2014-02-09 03:53:00
11:15 PM,75.0,72.0,90,30.07,10.0,North,6.9,-,N/A,,Mostly Cloudy,350,2014-02-09 04:15:00
11:30 PM,75.0,72.0,90,30.07,10.0,North,9.2,-,N/A,,Mostly Cloudy,350,2014-02-09 04:30:00
11:39 PM,75.0,71.1,87,30.07,10.0,North,8.1,-,N/A,,Scattered Clouds,350,2014-02-09 04:39:00
11:53 PM,75.0,71.1,87,30.06,10.0,North,6.9,-,N/A,,Partly Cloudy,360,2014-02-09 04:53:00